DW8522 Weather Reports


Display with metric or nautical units.
time (UTC)temp
F
wind
direction
speed
MPH
gust
MPH
rain 1hr
in
rain 24hr
in
rain mn
in
humidity
%
barometer
mb
20260905154556 52 150 0.0 1.0 0.00 0.00 0.00 89 1017.4
20260905153049 51 140 0.0 2.0 0.00 0.00 0.00 90 1017.0
20260905151549 51 103 1.0 3.0 0.00 0.00 0.00 89 1016.6
20260905150047 50 130 0.0 0.0 0.00 0.00 0.00 89 1017.1
20260905144544 50 129 0.0 1.0 0.00 0.00 0.00 88 1017.1
20260905143048 51 129 0.0 1.0 0.00 0.00 0.00 87 1017.3
20260905141536 52 129 0.0 2.0 0.00 0.00 0.00 85 1017.7
20260905140033 53 129 0.0 1.0 0.00 0.00 0.00 84 1017.9
20260905134535 55 122 0.0 4.0 0.00 0.00 0.00 84 1018.0
20260905133029 55 160 2.0 5.0 0.00 0.00 0.00 83 1017.9
20260905131528 55 166 1.0 6.0 0.00 0.00 0.00 82 1018.1
20260905130024 55 158 1.0 3.0 0.00 0.00 0.00 82 1018.2
20260905124534 55 187 0.0 3.0 0.00 0.00 0.00 81 1018.3
20260905123023 55 328 2.0 6.0 0.00 0.00 0.00 81 1018.1
20260905121521 55 173 1.0 6.0 0.00 0.00 0.00 80 1018.3
20260905120019 54 124 1.0 4.0 0.00 0.00 0.00 82 1018.4
20260905114519 54 318 0.0 4.0 0.00 0.00 0.00 83 1018.5
20260905113019 54 165 0.0 5.0 0.00 0.00 0.00 82 1018.4
20260905111520 53 166 1.0 3.0 0.00 0.00 0.00 83 1018.6
20260905110017 53 173 0.0 8.0 0.00 0.00 0.00 83 1018.5
20260905104516 52 121 0.0 1.0 0.00 0.00 0.00 82 1018.4
20260905103016 53 120 0.0 2.0 0.00 0.00 0.00 81 1018.5
20260905101523 53 159 0.0 2.0 0.00 0.00 0.00 80 1018.6
20260905100015 54 153 1.0 4.0 0.00 0.00 0.00 79 1018.4
20260905094514 54 190 1.0 6.0 0.00 0.00 0.00 79 1018.4
20260905093014 54 198 1.0 8.0 0.00 0.00 0.00 79 1018.5
20260905091515 54 276 1.0 6.0 0.00 0.00 0.00 79 1018.7
20260905090015 54 228 1.0 5.0 0.00 0.00 0.00 78 1018.6
20260905084511 54 139 0.0 1.0 0.00 0.00 0.00 75 1018.8
20260905083018 55 160 0.0 2.0 0.00 0.00 0.00 73 1018.5
20260905081510 55 187 0.0 4.0 0.00 0.00 0.00 72 1018.3
20260905080011 55 180 1.0 5.0 0.00 0.00 0.00 73 1018.0
20260905074513 56 159 1.0 5.0 0.00 0.00 0.00 73 1017.7
20260905073009 56 204 1.0 5.0 0.00 0.00 0.00 73 1017.4
20260905071516 56 164 1.0 4.0 0.00 0.00 0.00 73 1017.2
20260905070008 57 158 0.0 3.0 0.00 0.00 0.00 72 1017.3
20260905064507 57 250 1.0 3.0 0.00 0.00 0.00 71 1017.3
20260905063007 58 142 1.0 5.0 0.00 0.00 0.00 70 1017.5
20260905061508 58 259 2.0 7.0 0.00 0.00 0.00 70 1017.4
20260905060005 59 322 3.0 7.0 0.00 0.00 0.00 69 1017.2
20260905054506 60 292 3.0 11.0 0.00 0.00 0.00 68 1017.2
20260905053004 60 215 2.0 6.0 0.00 0.00 0.00 64 1017.1
20260905051503 61 235 3.0 8.0 0.00 0.00 0.00 61 1016.9
20260905050002 63 177 1.0 6.0 0.00 0.00 0.00 62 1016.8
20260905044502 63 158 3.0 9.0 0.00 0.00 0.00 61 1016.9
20260905043100 63 283 4.0 10.0 0.00 0.00 0.00 62 1017.0
20260905041601 64 181 3.0 11.0 0.00 0.00 0.00 62 1016.9
20260905040059 63 319 6.0 15.0 0.00 0.00 0.00 64 1016.8
20260905034558 64 266 4.0 14.0 0.00 0.00 0.00 60 1016.7
20260905033057 65 248 5.0 12.0 0.00 0.00 0.00 59 1016.7
20260905031605 64 252 3.0 9.0 0.00 0.00 0.00 63 1017.0
20260905030100 63 264 4.0 10.0 0.00 0.00 0.00 63 1017.0
20260905024600 63 179 2.0 7.0 0.00 0.03 0.00 64 1016.8
20260905023053 63 293 4.0 9.0 0.00 0.03 0.00 63 1017.2
20260905021551 63 194 3.0 9.0 0.00 0.03 0.00 61 1017.2
20260905020049 63 249 3.0 11.0 0.00 0.03 0.00 62 1017.3
20260905014550 64 228 4.0 12.0 0.00 0.03 0.00 60 1017.6
20260905013055 64 172 3.0 7.0 0.00 0.03 0.00 60 1017.6
20260905011647 64 210 3.0 7.0 0.00 0.03 0.00 59 1017.7
20260905010047 65 207 3.0 9.0 0.00 0.03 0.00 59 1017.9
20260905004552 65 239 3.0 10.0 0.00 0.03 0.00 59 1017.9
20260905003047 65 240 3.0 10.0 0.00 0.03 0.00 59 1018.1
20260905001543 65 158 3.0 5.0 0.00 0.03 0.00 60 1018.3
20260905000041 64 266 5.0 15.0 0.00 0.03 0.00 62 1018.2
20260904234540 64 229 4.0 11.0 0.00 0.03 0.00 59 1018.3
20260904233039 64 160 1.0 7.0 0.00 0.03 0.00 63 1018.5
20260904231539 63 181 2.0 6.0 0.00 0.03 0.00 62 1018.6
20260904230057 63 228 2.0 9.0 0.00 0.03 0.00 66 1018.6
20260904224533 62 278 3.0 8.0 0.00 0.03 0.00 66 1018.7
20260904223032 62 222 1.0 4.0 0.00 0.03 0.00 66 1018.7
20260904221529 62 181 1.0 4.0 0.00 0.03 0.00 68 1018.6
20260904220028 61 160 1.0 6.0 0.00 0.03 0.00 70 1018.5
20260904214523 60 150 2.0 9.0 0.00 0.03 0.00 71 1018.5
20260904213020 60 156 2.0 6.0 0.00 0.03 0.00 74 1018.4
20260904211516 59 163 3.0 9.0 0.00 0.03 0.00 74 1018.3
20260904210013 58 190 4.0 13.0 0.00 0.03 0.00 75 1018.1
20260904204511 57 163 3.0 10.0 0.00 0.03 0.00 77 1018.0
20260904203007 56 224 6.0 13.0 0.00 0.03 0.00 77 1017.8
20260904201502 56 198 5.0 13.0 0.00 0.03 0.00 79 1017.8
20260904200004 55 289 4.0 9.0 0.00 0.03 0.00 80 1017.8
20260904194503 54 163 3.0 10.0 0.00 0.03 0.00 81 1017.9
20260904193100 54 230 3.0 9.0 0.00 0.03 0.00 82 1017.8
20260904191558 53 197 4.0 9.0 0.00 0.03 0.00 83 1017.6
20260904190058 53 213 3.0 8.0 0.00 0.03 0.00 83 1017.5
20260904184555 53 284 3.0 13.0 0.00 0.03 0.00 82 1017.2
20260904183111 53 260 4.0 15.0 0.00 0.03 0.00 82 1017.2
20260904181551 53 194 5.0 11.0 0.00 0.03 0.00 82 1017.3
20260904180050 53 245 4.0 10.0 0.00 0.03 0.00 82 1017.2
20260904174548 53 296 4.0 11.0 0.00 0.03 0.00 82 1017.0
20260904173045 53 231 5.0 11.0 0.00 0.03 0.00 82 1016.9
20260904171544 53 219 4.0 11.0 0.00 0.03 0.00 82 1016.9
20260904170041 53 257 4.0 10.0 0.00 0.03 0.00 83 1016.8
20260904164538 53 229 5.0 13.0 0.00 0.03 0.00 83 1016.7
20260904163036 53 263 5.0 10.0 0.00 0.03 0.00 83 1016.3
20260904161533 53 281 4.0 11.0 0.00 0.03 0.00 82 1016.2
20260904160031 54 290 4.0 8.0 0.00 0.03 0.00 82 1016.1